• In Latvia
  • List of Countries
  • For 7 days
  • Water Temperature
  • Satellite Maps
  • Weather Map
  • Weather Widgets
  • user-avatar
    Login

    Hourly Weather Shrewsbury

    Today, 19 September, Wednesday

    Time Temperature Precipitation Wind Pressure Humidity
    00:00 +14°C° 0 mm 4 mps 750 mmHg 93%
    01:00 +14°C° 0 mm 4 mps 750 mmHg 93%
    02:00 +14°C° 0 mm 4 mps 750 mmHg 94%
    03:00 +14°C° 0 mm 5 mps 750 mmHg 95%
    04:00 +14°C° 0 mm 5 mps 750 mmHg 93%
    05:00 +14°C° 0 mm 6 mps 749 mmHg 92%
    06:00 +14°C° 0 mm 5 mps 748 mmHg 93%
    07:00 +15°C° 0.1 mm 7 mps 748 mmHg 89%
    08:00 +16°C° 0.1 mm 9 mps 748 mmHg 85%
    09:00 +17°C° 0.1 mm 11 mps 748 mmHg 81%
    10:00 +17°C° 0.1 mm 11 mps 748 mmHg 80%
    11:00 +17°C° 0.1 mm 11 mps 748 mmHg 79%
    12:00 +17°C° 0.1 mm 11 mps 748 mmHg 78%
    13:00 +17°C° 0.1 mm 11 mps 748 mmHg 75%
    14:00 +16°C° 0.1 mm 10 mps 749 mmHg 73%
    15:00 +16°C° 0.1 mm 10 mps 750 mmHg 70%
    16:00 +15°C° 0 mm 8 mps 750 mmHg 70%
    17:00 +14°C° 0 mm 7 mps 751 mmHg 70%
    18:00 +13°C° 0 mm 5 mps 751 mmHg 70%
    19:00 +12°C° 0 mm 5 mps 752 mmHg 72%
    20:00 +12°C° 0 mm 5 mps 753 mmHg 74%
    21:00 +10°C° 0 mm 5 mps 753 mmHg 75%
    22:00 +11°C° 0.2 mm 4 mps 753 mmHg 79%
    23:00 +11°C° 0.2 mm 4 mps 753 mmHg 83%

    Tomorrow, 20 September, Thursday

    Time Temperature Precipitation Wind Pressure Humidity
    00:00 +10°C° 0.2 mm 4 mps 753 mmHg 86%
    01:00 +10°C° 0.8 mm 3 mps 753 mmHg 88%
    02:00 +10°C° 0.8 mm 2 mps 752 mmHg 91%
    03:00 +10°C° 0.8 mm 2 mps 752 mmHg 93%
    04:00 +10°C° 0.4 mm 2 mps 752 mmHg 93%
    05:00 +11°C° 0.4 mm 1 mps 752 mmHg 93%
    06:00 +11°C° 0.4 mm 1 mps 752 mmHg 94%
    07:00 +12°C° 0.5 mm 1 mps 751 mmHg 93%
    08:00 +12°C° 0.5 mm 1 mps 751 mmHg 93%
    09:00 +12°C° 0.5 mm 1 mps 751 mmHg 93%
    10:00 +13°C° 0.9 mm 2 mps 750 mmHg 93%
    11:00 +12°C° 0.9 mm 3 mps 750 mmHg 93%
    12:00 +13°C° 0.9 mm 4 mps 749 mmHg 94%
    13:00 +14°C° 3.5 mm 5 mps 748 mmHg 93%
    14:00 +15°C° 3.5 mm 7 mps 746 mmHg 93%
    15:00 +16°C° 3.5 mm 9 mps 745 mmHg 93%
    16:00 +16°C° 2.4 mm 9 mps 744 mmHg 92%
    17:00 +16°C° 2.4 mm 9 mps 743 mmHg 92%
    18:00 +17°C° 2.4 mm 9 mps 742 mmHg 92%
    19:00 +16°C° 1.3 mm 9 mps 741 mmHg 92%
    20:00 +16°C° 1.3 mm 9 mps 740 mmHg 92%
    21:00 +16°C° 1.3 mm 9 mps 739 mmHg 92%
    22:00 +13°C° 0.4 mm 9 mps 740 mmHg 90%
    23:00 +12°C° 0.4 mm 9 mps 740 mmHg 88%

    Day after tomorrow, 21 September, Friday

    Time Temperature Precipitation Wind Pressure Humidity
    00:00 +9°C° 0.4 mm 10 mps 741 mmHg 86%
    01:00 +8°C° 0.1 mm 9 mps 743 mmHg 85%
    02:00 +7°C° 0.1 mm 8 mps 744 mmHg 84%
    03:00 +6°C° 0.1 mm 8 mps 745 mmHg 83%
    04:00 +6°C° 0 mm 8 mps 746 mmHg 82%
    05:00 +6°C° 0 mm 7 mps 746 mmHg 81%
    06:00 +6°C° 0 mm 7 mps 747 mmHg 80%
    07:00 +7°C° 0.2 mm 8 mps 747 mmHg 78%
    08:00 +7°C° 0.2 mm 10 mps 747 mmHg 77%
    09:00 +8°C° 0.2 mm 11 mps 748 mmHg 75%
    10:00 +9°C° 0.2 mm 11 mps 749 mmHg 73%
    11:00 +11°C° 0.2 mm 11 mps 749 mmHg 72%
    12:00 +11°C° 0.2 mm 11 mps 750 mmHg 70%
    13:00 +12°C° 0.1 mm 10 mps 751 mmHg 68%
    14:00 +12°C° 0.1 mm 9 mps 751 mmHg 66%
    15:00 +12°C° 0.1 mm 9 mps 752 mmHg 64%
    16:00 +11°C° 0.1 mm 7 mps 753 mmHg 69%
    17:00 +10°C° 0.1 mm 6 mps 753 mmHg 73%
    18:00 +10°C° 0.1 mm 4 mps 754 mmHg 78%
    19:00 +10°C° 0 mm 4 mps 754 mmHg 80%
    20:00 +8°C° 0 mm 4 mps 755 mmHg 83%
    21:00 +7°C° 0 mm 4 mps 756 mmHg 85%
    22:00 +7°C° 0 mm 4 mps 756 mmHg 85%
    23:00 +7°C° 0 mm 4 mps 756 mmHg 86%

    22 September, Saturday

    Time Temperature Precipitation Wind Pressure Humidity
    00:00 +6°C° 0 mm 4 mps 757 mmHg 86%
    01:00 +6°C° 0 mm 4 mps 757 mmHg 86%
    02:00 +6°C° 0 mm 4 mps 757 mmHg 86%
    03:00 +7°C° 0 mm 3 mps 757 mmHg 86%
    04:00 +5°C° 0 mm 3 mps 758 mmHg 87%
    05:00 +5°C° 0 mm 3 mps 758 mmHg 87%
    06:00 +5°C° 0 mm 3 mps 758 mmHg 88%
    07:00 +6°C° 0 mm 4 mps 759 mmHg 82%
    08:00 +8°C° 0 mm 4 mps 759 mmHg 77%
    09:00 +10°C° 0 mm 4 mps 759 mmHg 71%
    10:00 +11°C° 0 mm 4 mps 759 mmHg 68%
    11:00 +12°C° 0 mm 4 mps 759 mmHg 65%
    12:00 +13°C° 0 mm 4 mps 759 mmHg 62%
    13:00 +13°C° 0 mm 4 mps 759 mmHg 62%
    14:00 +13°C° 0 mm 4 mps 759 mmHg 63%
    15:00 +13°C° 0 mm 3 mps 759 mmHg 63%
    16:00 +12°C° 0 mm 3 mps 758 mmHg 67%
    17:00 +12°C° 0 mm 2 mps 758 mmHg 70%
    18:00 +11°C° 0 mm 1 mps 757 mmHg 74%
    19:00 +11°C° 0.1 mm 1 mps 757 mmHg 76%
    20:00 +10°C° 0.1 mm 1 mps 756 mmHg 78%
    21:00 +10°C° 0.1 mm 1 mps 756 mmHg 80%
    22:00 +9°C° 1.9 mm 3 mps 754 mmHg 84%
    23:00 +7°C° 1.9 mm 4 mps 753 mmHg 89%

    23 September, Sunday

    Time Temperature Precipitation Wind Pressure Humidity
    00:00 +7°C° 1.9 mm 5 mps 751 mmHg 94%
    01:00 +6°C° 4.7 mm 7 mps 749 mmHg 94%
    02:00 +6°C° 4.7 mm 8 mps 746 mmHg 94%
    03:00 +6°C° 4.7 mm 10 mps 743 mmHg 94%
    04:00 +6°C° 7.6 mm 11 mps 741 mmHg 93%
    05:00 +6°C° 7.6 mm 11 mps 738 mmHg 93%
    06:00 +5°C° 7.6 mm 12 mps 736 mmHg 92%
    07:00 +7°C° 1.3 mm 11 mps 734 mmHg 92%
    08:00 +8°C° 1.3 mm 10 mps 733 mmHg 93%
    09:00 +8°C° 1.3 mm 9 mps 732 mmHg 93%
    10:00 +8°C° 2.1 mm 10 mps 732 mmHg 93%
    11:00 +9°C° 2.1 mm 10 mps 732 mmHg 92%
    12:00 +9°C° 2.1 mm 11 mps 733 mmHg 92%
    13:00 +8°C° 2.5 mm 13 mps 735 mmHg 90%
    14:00 +8°C° 2.5 mm 14 mps 738 mmHg 88%
    15:00 +6°C° 2.5 mm 16 mps 740 mmHg 86%
    16:00 +6°C° 0.3 mm 15 mps 743 mmHg 83%
    17:00 +7°C° 0.3 mm 13 mps 747 mmHg 80%
    18:00 +7°C° 0.3 mm 12 mps 750 mmHg 77%
    19:00 +6°C° 0 mm 11 mps 752 mmHg 76%
    20:00 +6°C° 0 mm 10 mps 754 mmHg 75%
    21:00 +6°C° 0 mm 9 mps 756 mmHg 75%
    22:00 +5°C° 0 mm 8 mps 757 mmHg 74%
    23:00 +5°C° 0 mm 7 mps 759 mmHg 73%

    24 September, Monday

    Time Temperature Precipitation Wind Pressure Humidity
    00:00 +5°C° 0 mm 7 mps 760 mmHg 73%
    01:00 +4°C° 0 mm 6 mps 761 mmHg 73%
    02:00 +4°C° 0 mm 6 mps 761 mmHg 74%
    03:00 +5°C° 0 mm 5 mps 762 mmHg 75%
    04:00 +5°C° 0 mm 5 mps 763 mmHg 74%
    05:00 +3°C° 0 mm 5 mps 764 mmHg 74%
    06:00 +4°C° 0 mm 4 mps 765 mmHg 73%
    07:00 +5°C° 0 mm 5 mps 765 mmHg 71%
    08:00 +7°C° 0 mm 5 mps 766 mmHg 69%
    09:00 +8°C° 0 mm 6 mps 767 mmHg 66%
    10:00 +9°C° 0.1 mm 6 mps 767 mmHg 66%
    11:00 +10°C° 0.1 mm 6 mps 767 mmHg 65%
    12:00 +10°C° 0.1 mm 6 mps 768 mmHg 65%
    13:00 +11°C° 0.1 mm 6 mps 768 mmHg 66%
    14:00 +11°C° 0.1 mm 6 mps 768 mmHg 67%
    15:00 +11°C° 0.1 mm 6 mps 768 mmHg 68%
    16:00 +10°C° 0 mm 5 mps 769 mmHg 72%
    17:00 +10°C° 0 mm 4 mps 769 mmHg 76%
    18:00 +9°C° 0 mm 3 mps 769 mmHg 80%
    19:00 +8°C° 0 mm 3 mps 770 mmHg 83%
    20:00 +7°C° 0 mm 3 mps 770 mmHg 85%
    21:00 +6°C° 0 mm 2 mps 771 mmHg 88%
    22:00 +6°C° 0 mm 2 mps 771 mmHg 89%
    23:00 +6°C° 0 mm 2 mps 771 mmHg 90%
    Show more